PASIPAKT

Guest
Details From PASI - SITKA ROCKY GUTIERREZ
To PAKT - KETCHIKAN INTL
Flight Number -
Tags generated
Created
Modified
Stats Distance 160 nm / 297 km
Max Altitude 13,000 ft / 3,962 m
Waypoints 3
Social Downloads 0
Likes 0
Share VATSIM

Download

Looking for another format? Having issues loading an existing format? Contact us
Advertisement - Login to hide

Notes

Basic altitude profile: - Ascent Rate: 2500ft/min - Ascent Speed: 250kts - Cruise Altitude: 35000ft - Cruise Speed: 420kts - Descent Rate: 1500ft/min - Descent Speed: 250kts Options: - Use NATs: yes - Use PACOTS: yes - Use low airways: yes - Use high airways: no

Route

PASI TOKEE PAKT

ID Type Via Altitude Latitude Longitude Leg Dist Tot Dist Heading (true) Name
O PASI APT - 0 ft / 0 m 57.04713˚ -135.36160˚ - 0 nm - SITKA ROCKY GUTIERREZ
TOKEE FIX - 13,000 ft / 3,962 m 55.91250˚ -133.37881˚ 94 nm 94 nm 135° / 137° -
O PAKT APT - 0 ft / 0 m 55.35554˚ -131.71374˚ 65 nm 160 nm 120° / 121° KETCHIKAN INTL

Altitude Profile

Advertisement - Login to hide

PASI

Details ICAO PASI (SIT)
Name SITKA ROCKY GUTIERREZ
Region USA (Alaska)
Timezone America/Juneau (UTC-8.0)
Stats Elevation 21 ft / 6 m (AMSL)
Location 57.047128° -135.361597°
Runways 1
Magnetic Variation 18.631° E

METAR

PASI 260053Z 00000KT 10SM -RA FEW012 SCT027 OVC050 08/07 A2990

Decode

TAF

PASI 252321Z 2600/2624 22008KT P6SM -RA SCT025 BKN045 OVC050 TEMPO 2600/2603 6SM -SHRA BKN025 OVC035 FM260300 22007KT P6SM -SHRA BKN025 OVC050 FM260600 15004KT P6SM -SHRA OVC040 FM261900 11015G30KT P6SM -RA OVC040 WS020/14040KT

Decode

Departure Runways

ID Width Length Bearing (true) Bearing (mag) Surface Threshold Offset Overrun Length
11 150 ft / 46 m 6,485 ft / 1,977 m 135.57° 116.94° Asphalt 0 ft / 0 m 0 ft / 0 m
29 150 ft / 46 m 6,485 ft / 1,977 m 315.59° 296.96° Asphalt 0 ft / 0 m 0 ft / 0 m

PAKT

Details ICAO PAKT (KTN)
Name KETCHIKAN INTL
Region USA (Alaska)
Timezone Unknown (UTC+0.0)
Stats Elevation 88 ft / 27 m (AMSL)
Location 55.355545° -131.713737°
Runways 1
Magnetic Variation 18.428° E

METAR

PAKT 260053Z 00000KT 10SM -RA OVC032 10/07 A2992

Decode

TAF

PAKT 252321Z 2600/2624 14010KT P6SM -SHRA SCT015 SCT025 OVC035 TEMPO 2600/2603 6SM -SHRA BR BKN025 OVC035 FM261700 15015G30KT 5SM -RA BR SCT010 OVC025 WS020/14045KT AMD LTD TO CLD VIS AND WIND 2606/2615

Decode

Destination Runways

ID Width Length Bearing (true) Bearing (mag) Surface Threshold Offset Overrun Length
11 150 ft / 46 m 7,485 ft / 2,281 m 135.66° 117.23° Asphalt 0 ft / 0 m 200 ft / 61 m
29 150 ft / 46 m 7,485 ft / 2,281 m 315.68° 297.25° Asphalt 0 ft / 0 m 100 ft / 30 m

Approach Navaids

Runway Type Ident Frequency Range Bearing (true) Bearing (mag) Slope Elevation
11 Localiser IECH 109.30 MHz 18 nm / 33 km 135.69° 117.26° - 66 ft / 20 m (AMSL)
11 Glidescope IECH 109.30 MHz 10 nm / 19 km 135.67° 117.25° 3.61° 76 ft / 23 m (AMSL)
11 DME IECH 109.30 MHz 18 nm / 33 km - - - 98 ft / 30 m (AMSL)

Popular Alternatives